Temp
-14 -14 -14 -14 -14 -14 -13 -13 -13 -14 -14 -14 -13 -13 -13 -13 -12 -12 -12 -12 -13 -13 -13 -13 -13 -13 -13 -13 -13 -13 -13 -13 -13 -13 -13 -13 -14 -13 -13 -13 -13 -13
-14 -14 -14 -14 -14 -15 -14 -14 -14 -14 -14 -14 -13 -13 -13 -13 -12 -12 -12 -13 -13 -13 -13 -13 -13 -13 -13 -13 -13 -13 -13 -13 -13 -13 -13 -13 -14 -14 -13 -13 -13 -13
-14 -14 -14 -14 -14 -15 -14 -14 -14 -14 -14 -14 -14 -14 -13 -13 -13 -13 -13 -13 -13 -13 -13 -13 -13 -13 -13 -13 -13 -13 -13 -13 -13 -13 -13 -13 -14 -14 -14 -13 -13 -13
-14 -14 -14 -14 -14 -14 -14 -14 -14 -14 -14 -14 -14 -14 -14 -14 -13 -13 -13 -13 -13 -13 -13 -13 -13 -13 -13 -13 -13 -13 -13 -13 -13 -13 -13 -14 -14 -14 -14 -14 -14 -13
-14 -14 -14 -14 -14 -14 -14 -14 -14 -14 -14 -14 -14 -14 -14 -14 -13 -13 -13 -13 -13 -13 -13 -13 -13 -13 -13 -13 -13 -13 -14 -14 -13 -13 -14 -14 -14 -14 -14 -14 -14 -14
-14 -14 -14 -14 -15 -14 -14 -14 -14 -15 -14 -14 -14 -15 -14 -14 -14 -13 -13 -13 -14 -14 -14 -13 -13 -13 -13 -13 -13 -13 -13 -14 -13 -13 -14 -14 -14 -14 -14 -14 -14 -14
-14 -14 -15 -15 -15 -15 -15 -15 -15 -15 -15 -15 -15 -15 -15 -14 -14 -14 -13 -14 -14 -14 -14 -14 -13 -14 -14 -14 -13 -13 -13 -14 -13 -13 -14 -14 -14 -14 -14 -14 -14 -14
-14 -15 -15 -15 -15 -15 -15 -15 -15 -15 -15 -15 -15 -15 -14 -14 -14 -14 -14 -14 -14 -14 -14 -14 -14 -14 -14 -14 -14 -14 -13 -13 -13 -14 -14 -14 -14 -14 -14 -14 -14 -14
-15 -15 -15 -15 -15 -15 -15 -15 -15 -15 -15 -15 -15 -15 -14 -14 -14 -14 -14 -14 -14 -14 -14 -14 -14 -14 -14 -14 -14 -14 -13 -13 -14 -14 -14 -14 -14 -14 -14 -14 -14 -14
-15 -15 -15 -15 -15 -15 -15 -16 -16 -16 -16 -15 -15 -15 -14 -14 -14 -14 -14 -14 -14 -14 -14 -14 -14 -14 -14 -14 -14 -13 -13 -14 -14 -14 -14 -14 -14 -14 -14 -14 -14 -14
-16 -16 -16 -16 -16 -15 -15 -15 -15 -15 -15 -15 -15 -15 -14 -14 -14 -14 -14 -14 -14 -14 -13 -14 -14 -14 -14 -14 -14 -14 -13 -14 -14 -14 -14 -14 -14 -14 -14 -14 -14 -14
-16 -16 -16 -16 -16 -15 -15 -15 -15 -15 -15 -15 -15 -15 -14 -14 -14 -14 -14 -14 -14 -14 -14 -14 -14 -14 -14 -14 -14 -14 -14 -14 -14 -14 -14 -14 -15 -15 -15 -15 -15 -14
-16 -16 -16 -16 -16 -15 -15 -15 -15 -15 -15 -15 -15 -15 -14 -14 -14 -14 -14 -14 -14 -14 -14 -14 -14 -14 -14 -14 -14 -14 -14 -14 -14 -14 -14 -14 -15 -15 -15 -15 -15 -15
-16 -16 -16 -16 -15 -15 -15 -15 -15 -15 -15 -15 -14 -14 -14 -14 -14 -14 -14 -14 -14 -14 -14 -14 -14 -14 -14 -14 -14 -14 -14 -14 -14 -14 -14 -14 -14 -14 -14 -15 -15 -15
-15 -15 -15 -15 -15 -15 -15 -15 -15 -15 -15 -14 -14 -14 -14 -14 -14 -14 -14 -14 -14 -14 -14 -14 -14 -14 -14 -14 -14 -14 -14 -14 -14 -14 -14 -15 -14 -14 -15 -15 -15 -15
-15 -15 -15 -15 -15 -15 -15 -15 -15 -15 -15 -14 -14 -14 -14 -14 -14 -14 -14 -14 -14 -14 -14 -14 -14 -14 -15 -15 -14 -14 -14 -15 -14 -14 -14 -14 -15 -15 -15 -15 -15 -15
-15 -15 -15 -15 -15 -15 -15 -15 -14 -14 -14 -14 -14 -14 -14 -14 -14 -14 -14 -14 -14 -14 -14 -14 -14 -14 -15 -15 -14 -14 -15 -15 -14 -14 -14 -14 -15 -15 -15 -15 -15 -15
-15 -15 -15 -15 -15 -14 -14 -14 -14 -14 -14 -14 -14 -14 -14 -14 -14 -14 -14 -14 -14 -14 -14 -14 -14 -15 -15 -15 -14 -15 -15 -15 -14 -14 -15 -15 -15 -15 -15 -15 -15 -15
-15 -15 -15 -15 -15 -14 -14 -14 -14 -14 -14 -14 -14 -14 -14 -14 -14 -14 -14 -14 -14 -14 -14 -14 -14 -15 -15 -15 -15 -15 -15 -15 -14 -15 -15 -15 -15 -15 -15 -15 -15 -16
-15 -15 -15 -15 -15 -14 -14 -14 -14 -14 -14 -14 -14 -13 -13 -14 -14 -14 -14 -14 -14 -14 -14 -14 -14 -14 -15 -15 -15 -15 -15 -15 -15 -15 -15 -15 -15 -15 -15 -15 -16 -16
-16 -15 -15 -15 -15 -14 -14 -14 -14 -14 -14 -14 -14 -14 -13 -14 -14 -14 -14 -14 -14 -14 -14 -14 -14 -14 -15 -15 -15 -15 -15 -15 -15 -15 -15 -15 -15 -15 -16 -16 -16 -16
-16 -16 -15 -15 -14 -14 -14 -14 -14 -14 -14 -14 -14 -14 -14 -14 -14 -14 -14 -14 -14 -14 -14 -15 -15 -14 -15 -15 -15 -14 -14 -15 -15 -15 -15 -15 -15 -15 -16 -16 -16 -16
-16 -16 -15 -15 -14 -14 -14 -14 -14 -14 -14 -14 -14 -14 -14 -14 -14 -14 -14 -14 -14 -14 -15 -15 -15 -14 -15 -15 -15 -15 -15 -15 -15 -15 -15 -15 -15 -16 -16 -16 -16 -16
-16 -16 -15 -15 -15 -15 -15 -15 -14 -14 -14 -14 -14 -14 -14 -14 -14 -14 -14 -15 -15 -15 -15 -15 -15 -15 -15 -15 -15 -15 -15 -15 -15 -15 -16 -16 -16 -16 -16 -16 -16 -16
-16 -16 -15 -15 -15 -15 -15 -15 -14 -14 -14 -14 -15 -15 -14 -14 -15 -15 -15 -15 -15 -15 -15 -15 -15 -15 -15 -15 -15 -15 -15 -16 -16 -16 -16 -16 -16 -16 -17 -17 -16 -16
-16 -16 -16 -15 -15 -15 -15 -15 -15 -14 -14 -15 -15 -15 -14 -14 -15 -15 -15 -15 -15 -15 -15 -15 -15 -15 -15 -15 -15 -16 -16 -16 -16 -16 -16 -16 -16 -16 -17 -17 -17 -16
Height
5756 5756 5754 5755 5756 5757 5758 5760 5762 5763 5763 5763 5764 5765 5766 5768 5770 5772 5774 5773 5774 5775 5775 5775 5777 5778 5779 5781 5783 5785 5787 5788 5788 5789 5789 5789 5791 5792 5793 5794 5795 5796
5754 5753 5752 5753 5754 5754 5755 5756 5757 5758 5759 5760 5760 5761 5762 5764 5767 5769 5769 5770 5771 5772 5772 5772 5774 5775 5776 5778 5780 5782 5783 5785 5786 5786 5786 5787 5788 5790 5791 5792 5793 5794
5750 5750 5750 5751 5752 5752 5752 5752 5753 5753 5755 5757 5757 5758 5759 5760 5763 5764 5764 5765 5767 5768 5769 5770 5771 5772 5773 5775 5776 5778 5780 5781 5782 5783 5784 5785 5787 5788 5789 5790 5791 5792
5746 5745 5746 5747 5749 5749 5748 5749 5750 5750 5753 5755 5754 5755 5756 5758 5760 5760 5760 5761 5763 5765 5766 5767 5769 5770 5771 5772 5773 5776 5777 5778 5779 5781 5782 5783 5785 5786 5787 5788 5789 5790
5740 5740 5741 5744 5746 5746 5745 5746 5747 5747 5749 5752 5752 5752 5753 5755 5757 5758 5757 5758 5760 5762 5763 5764 5766 5767 5768 5769 5771 5773 5774 5775 5777 5779 5780 5780 5782 5783 5784 5786 5786 5787
5736 5735 5737 5740 5743 5744 5743 5744 5744 5744 5747 5749 5749 5749 5750 5752 5754 5755 5755 5756 5757 5759 5760 5761 5763 5764 5766 5767 5768 5770 5771 5772 5774 5776 5777 5778 5779 5781 5782 5783 5784 5785
5733 5732 5733 5737 5740 5741 5741 5741 5741 5742 5744 5746 5746 5746 5747 5748 5750 5751 5752 5752 5754 5755 5757 5758 5760 5761 5762 5763 5765 5767 5768 5770 5773 5773 5774 5775 5776 5778 5779 5780 5781 5782
5731 5731 5732 5734 5737 5738 5738 5737 5738 5739 5741 5743 5743 5743 5743 5744 5746 5748 5749 5749 5751 5752 5754 5755 5756 5757 5759 5760 5762 5764 5765 5768 5771 5770 5770 5772 5773 5774 5776 5777 5778 5779
5729 5729 5730 5732 5733 5734 5735 5735 5735 5737 5739 5739 5739 5740 5740 5741 5743 5745 5746 5747 5748 5749 5750 5752 5753 5754 5756 5757 5759 5761 5762 5765 5766 5766 5767 5769 5770 5771 5773 5774 5775 5776
5727 5727 5728 5729 5730 5731 5732 5732 5733 5735 5736 5736 5736 5737 5737 5739 5741 5742 5744 5745 5746 5747 5747 5748 5749 5751 5753 5754 5756 5758 5760 5762 5762 5763 5764 5765 5767 5768 5770 5771 5772 5772
5725 5725 5726 5726 5726 5727 5728 5729 5730 5732 5734 5734 5734 5735 5735 5737 5738 5740 5741 5742 5743 5743 5744 5745 5746 5748 5750 5752 5754 5756 5758 5758 5759 5759 5761 5762 5764 5765 5766 5767 5768 5769
5724 5724 5724 5724 5723 5723 5724 5725 5727 5730 5732 5732 5732 5732 5733 5734 5735 5736 5737 5738 5739 5740 5740 5742 5743 5745 5747 5749 5751 5754 5755 5755 5755 5756 5758 5759 5760 5762 5763 5764 5765 5766
5722 5722 5722 5722 5721 5720 5721 5722 5725 5727 5729 5729 5729 5729 5730 5730 5731 5732 5733 5734 5735 5736 5737 5738 5740 5742 5744 5746 5748 5751 5752 5751 5752 5753 5755 5756 5757 5758 5759 5760 5761 5763
5720 5720 5720 5720 5719 5718 5719 5720 5722 5723 5724 5725 5725 5726 5726 5727 5727 5728 5728 5729 5730 5732 5733 5735 5737 5739 5741 5743 5745 5746 5748 5748 5749 5750 5751 5753 5754 5755 5756 5757 5758 5760
5717 5717 5717 5717 5717 5716 5716 5717 5719 5720 5720 5721 5722 5722 5722 5722 5723 5724 5724 5725 5727 5728 5730 5732 5734 5735 5738 5740 5741 5742 5744 5745 5745 5746 5748 5749 5750 5752 5753 5754 5755 5756
5714 5714 5714 5714 5714 5714 5714 5714 5715 5716 5716 5717 5718 5718 5718 5717 5718 5720 5721 5721 5723 5725 5727 5728 5730 5732 5734 5735 5736 5737 5739 5740 5741 5742 5744 5746 5747 5748 5749 5751 5752 5752
5710 5710 5710 5710 5710 5711 5711 5711 5711 5711 5712 5713 5713 5714 5713 5712 5714 5715 5716 5717 5719 5721 5723 5725 5727 5728 5730 5731 5732 5733 5734 5735 5737 5738 5740 5742 5743 5745 5746 5747 5748 5749
5707 5707 5706 5706 5706 5706 5707 5707 5706 5706 5707 5708 5708 5709 5708 5707 5708 5711 5712 5714 5716 5718 5719 5722 5723 5725 5726 5727 5727 5728 5730 5731 5732 5734 5736 5738 5739 5741 5742 5743 5744 5745
5704 5703 5702 5702 5701 5701 5702 5702 5702 5702 5702 5702 5703 5704 5704 5703 5704 5707 5709 5710 5712 5714 5716 5718 5719 5721 5722 5723 5723 5725 5726 5727 5728 5730 5731 5733 5735 5736 5738 5739 5740 5741
5701 5700 5699 5698 5697 5697 5697 5698 5698 5698 5698 5698 5699 5700 5700 5700 5701 5704 5705 5706 5709 5711 5712 5714 5716 5718 5719 5719 5720 5721 5722 5724 5724 5726 5727 5729 5731 5732 5733 5735 5736 5737
5698 5697 5696 5694 5693 5693 5693 5693 5694 5694 5694 5695 5695 5696 5695 5696 5698 5700 5701 5703 5705 5707 5709 5711 5713 5714 5715 5715 5716 5717 5719 5720 5721 5722 5724 5725 5727 5728 5729 5731 5732 5733
5694 5693 5692 5691 5690 5690 5689 5689 5689 5689 5690 5691 5692 5692 5692 5694 5695 5696 5698 5701 5702 5704 5706 5707 5709 5711 5711 5712 5713 5714 5714 5716 5717 5718 5720 5721 5723 5724 5725 5727 5728 5730
5691 5690 5689 5688 5688 5687 5686 5686 5686 5686 5686 5687 5688 5689 5689 5690 5692 5693 5695 5697 5698 5700 5703 5704 5705 5707 5708 5708 5709 5710 5711 5712 5713 5714 5716 5717 5719 5720 5722 5723 5725 5726
5688 5687 5686 5685 5685 5684 5683 5683 5684 5684 5684 5683 5684 5685 5686 5688 5689 5691 5692 5694 5695 5697 5699 5700 5701 5703 5704 5704 5705 5706 5707 5708 5709 5711 5712 5714 5715 5716 5718 5719 5721 5722
5685 5684 5683 5683 5682 5681 5680 5680 5681 5681 5681 5681 5681 5682 5684 5685 5686 5686 5688 5690 5691 5693 5695 5696 5697 5699 5699 5700 5701 5702 5703 5705 5706 5708 5709 5710 5712 5713 5714 5716 5717 5718
5682 5681 5680 5680 5680 5680 5679 5678 5679 5679 5678 5678 5678 5679 5681 5683 5682 5682 5684 5686 5687 5688 5690 5692 5693 5694 5695 5696 5697 5698 5700 5701 5703 5704 5705 5707 5708 5710 5711 5712 5714 5715
Wind_Speed
28 28 29 27 26 27 27 26 26 26 28 28 26 27 29 29 28 28 29 32 33 31 29 28 27 26 26 25 25 27 27 26 26 26 23 23 23 23 22 22 22 22
27 28 29 27 25 25 25 25 27 29 30 31 28 27 29 31 29 30 32 33 31 31 31 30 29 27 26 25 26 28 29 27 27 26 25 25 25 24 23 23 22 22
28 29 30 28 25 24 25 25 28 30 31 32 30 28 28 30 30 31 33 32 30 31 30 30 29 28 27 27 28 28 28 28 28 27 26 26 26 25 24 23 23 22
29 31 31 30 27 26 26 26 27 30 31 31 31 29 27 27 28 30 31 31 30 30 29 29 29 29 29 29 29 28 27 28 28 28 27 27 26 26 25 24 23 22
29 33 35 31 27 27 28 27 29 31 31 30 30 28 28 27 27 29 29 28 28 28 28 28 28 28 29 30 30 29 27 27 28 28 27 27 27 27 25 24 24 23
26 29 34 32 27 26 29 30 31 32 31 32 30 26 26 27 27 27 28 26 26 27 28 28 27 28 30 31 31 29 27 27 28 29 28 28 28 27 26 25 24 23
20 21 27 28 25 26 29 30 31 30 29 31 30 25 23 25 26 27 27 27 26 27 28 27 27 27 30 32 32 30 28 26 28 29 29 29 28 27 26 26 25 24
15 18 21 23 23 25 27 28 28 27 25 26 28 26 24 24 26 27 27 26 25 26 27 28 27 27 30 31 31 30 27 26 28 30 30 29 29 28 27 27 26 25
14 16 19 20 22 24 26 28 28 25 22 21 23 26 25 25 27 28 27 26 25 25 26 27 27 28 29 30 30 30 26 26 30 32 31 30 30 29 28 27 26 25
15 15 17 19 22 23 24 25 26 24 22 20 21 23 25 26 27 29 28 27 26 27 26 27 27 28 29 29 29 29 27 27 31 33 32 31 31 30 29 27 27 26
18 18 18 19 22 24 25 26 26 25 23 22 22 23 24 25 26 27 28 28 28 29 28 27 27 28 28 29 29 29 28 29 33 34 33 32 32 31 30 28 27 26
21 21 21 21 23 25 26 28 27 25 23 24 25 25 24 25 25 26 27 28 29 30 29 27 28 29 30 31 30 28 28 31 34 35 34 33 33 32 30 29 28 26
23 23 24 24 25 26 27 28 27 25 25 27 28 27 26 26 27 27 28 28 29 31 30 28 28 30 30 29 27 27 28 32 35 36 34 33 33 33 32 30 29 27
23 25 26 26 27 28 28 28 28 27 27 28 29 29 29 29 29 29 29 30 30 31 31 29 28 28 29 27 26 27 29 31 34 36 36 34 34 34 32 30 28 26
23 25 26 28 29 29 29 29 28 28 28 28 28 29 30 31 31 31 30 30 31 31 31 30 28 28 28 27 28 29 29 30 33 36 36 35 34 33 32 30 28 27
24 25 26 28 29 30 30 29 29 29 30 29 28 28 29 31 32 32 31 32 32 31 31 30 29 28 26 26 27 30 31 31 33 37 37 35 34 33 32 31 29 28
26 26 27 28 29 30 30 30 30 29 30 30 30 29 29 30 31 32 34 33 32 31 31 30 30 30 25 25 27 30 31 31 32 36 37 36 33 32 32 31 29 28
26 27 28 28 28 29 29 30 30 29 28 28 29 29 28 30 31 32 33 33 32 32 32 30 33 33 27 26 29 31 31 31 32 35 36 34 33 32 31 31 30 29
26 26 27 28 28 28 29 29 30 29 27 27 28 28 28 31 32 31 32 33 32 32 31 32 36 37 30 29 29 31 31 31 32 34 34 33 32 31 31 31 31 29
24 24 26 27 27 27 27 27 28 28 27 27 27 27 29 32 32 31 32 33 32 32 32 33 37 38 33 30 29 29 29 30 31 33 32 32 32 32 32 31 30 29
24 24 24 26 27 26 25 26 26 26 27 26 26 27 30 32 30 31 33 32 31 32 32 33 37 38 33 29 28 29 28 28 31 32 32 31 32 32 32 31 30 30
25 24 24 25 26 25 25 25 26 27 26 25 27 30 32 31 30 31 33 32 29 29 30 34 37 35 31 28 28 29 28 28 31 34 34 33 33 33 32 30 29 30
25 25 24 23 23 22 22 23 24 26 26 25 28 33 32 28 27 30 32 32 30 29 31 36 35 32 30 29 28 27 27 28 31 35 35 34 33 32 30 29 29 30
25 24 24 22 20 19 20 23 22 22 24 25 27 29 26 22 25 33 35 34 33 34 36 38 36 31 30 31 28 26 26 28 31 34 34 33 32 31 29 29 29 30
25 24 23 21 17 16 17 20 21 20 22 26 27 25 25 25 33 39 40 40 40 39 39 38 34 31 30 31 29 26 27 29 32 33 32 31 30 29 28 28 29 30
24 24 23 21 19 17 14 12 14 15 17 20 20 19 22 30 40 43 42 44 46 42 36 32 30 29 29 30 29 28 28 30 32 32 31 31 30 29 29 29 29 31
Wind_Direction
258 250 242 238 240 243 242 242 239 237 238 237 234 237 242 244 246 247 245 244 243 241 239 235 234 234 233 232 236 238 235 234 237 239 240 240 241 240 239 238 238 240
264 260 254 248 249 249 247 242 236 233 235 236 235 236 240 242 244 246 245 244 243 241 239 235 233 232 231 231 234 236 236 234 235 238 239 239 240 240 239 239 240 241
268 266 260 254 252 252 249 242 232 228 229 232 235 236 237 239 241 242 241 241 240 239 237 235 234 232 230 230 231 233 236 236 236 237 238 239 241 242 241 241 242 242
264 262 256 251 246 246 249 242 229 226 227 232 237 235 234 237 238 238 239 239 238 236 235 234 234 233 231 228 229 230 232 235 236 237 238 239 241 243 243 242 242 243
262 255 249 247 242 240 249 245 230 226 227 232 238 236 231 233 235 237 238 238 235 232 232 234 235 234 232 229 229 229 229 230 234 236 238 239 241 243 243 243 243 243
267 253 242 242 241 240 249 249 238 234 232 232 235 234 230 231 235 238 237 233 230 231 232 235 236 236 235 234 232 230 228 229 233 236 238 239 240 241 242 243 243 244
265 250 238 238 240 240 246 247 242 242 239 233 230 230 229 229 233 237 235 232 231 233 234 234 236 238 238 237 233 228 226 228 234 237 237 238 239 239 240 241 242 243
263 248 239 239 239 237 236 236 238 243 244 234 229 230 232 233 235 236 234 234 233 233 233 235 237 239 239 236 230 225 223 226 231 234 235 237 237 237 238 239 240 241
272 255 246 242 236 230 227 232 238 243 243 237 233 235 237 238 239 237 236 237 237 236 237 237 236 236 235 231 226 224 223 225 230 233 233 235 236 237 237 237 238 239
276 267 257 249 240 234 235 241 245 244 243 241 239 240 241 240 240 240 241 242 241 241 241 239 236 233 231 226 224 225 226 228 235 236 234 234 235 236 236 235 236 239
271 269 265 260 252 247 245 245 247 247 243 240 240 243 244 244 244 246 246 245 243 242 240 236 234 232 229 226 226 229 231 234 238 238 235 235 235 235 235 235 237 240
268 266 265 264 261 256 249 246 248 249 245 241 242 244 245 248 249 249 249 247 243 240 238 234 233 232 230 228 229 232 237 240 240 238 236 236 236 235 235 236 238 241
267 266 264 263 262 260 256 252 251 251 248 244 244 245 246 249 252 252 252 249 243 239 236 234 235 235 232 231 233 235 239 243 241 237 237 238 237 236 235 236 239 243
266 265 264 262 260 259 259 258 255 253 250 246 245 247 248 250 252 254 255 249 243 239 235 233 236 234 229 232 238 238 238 241 241 238 238 239 240 239 238 238 241 245
268 266 264 262 259 258 258 258 256 254 252 249 248 248 249 249 250 253 254 250 243 239 235 235 235 228 227 237 243 240 237 238 240 240 240 241 241 241 240 240 242 245
276 273 268 265 261 258 256 256 255 253 253 252 252 251 250 251 249 247 248 248 244 238 235 236 231 223 230 246 249 242 237 237 241 243 241 241 241 240 240 241 242 246
281 279 276 271 266 260 256 255 254 253 253 253 252 251 251 252 249 243 242 243 241 236 234 234 227 221 234 253 252 244 237 236 244 246 242 240 240 239 240 241 242 245
283 283 282 278 270 262 256 253 252 253 253 251 250 250 251 250 246 242 240 239 238 236 235 233 226 223 240 260 255 243 236 236 244 247 241 237 237 238 240 241 242 244
284 285 285 282 274 263 255 251 249 249 249 248 249 250 249 247 244 240 236 234 236 237 236 232 225 225 242 261 254 240 236 239 243 243 237 233 234 236 239 241 242 241
284 286 286 285 278 268 258 251 248 247 248 249 249 247 247 246 242 235 232 233 235 238 239 232 223 226 245 258 247 235 236 241 241 238 234 231 234 237 239 241 240 238
287 288 289 287 282 274 262 251 245 244 246 247 248 247 248 247 241 233 232 234 235 238 240 230 222 230 248 251 238 234 239 243 242 239 236 235 236 238 239 238 236 236
288 291 293 292 289 279 263 249 245 245 246 245 242 242 245 246 240 232 229 229 233 235 231 224 224 237 250 246 237 238 242 245 245 241 238 238 238 238 236 235 235 236
287 291 293 294 292 280 259 245 245 249 250 247 236 233 241 245 234 223 220 222 228 226 220 222 231 244 252 248 243 241 241 244 245 242 239 239 238 237 235 234 236 238
285 289 292 293 292 281 258 245 248 251 249 246 237 235 245 240 213 206 209 214 220 224 223 228 237 247 252 249 245 243 242 243 244 242 241 240 237 235 235 236 238 241
282 285 289 290 288 281 264 253 256 256 245 242 242 245 251 235 211 207 209 207 210 217 222 228 239 249 250 246 243 244 244 243 244 243 241 238 235 235 237 238 240 243
280 282 284 283 278 277 275 261 254 250 242 244 249 255 254 233 215 211 214 211 210 214 221 233 247 252 248 243 242 242 241 242 243 240 236 234 234 235 236 238 240 243